Regional Weather Roundup
Issued by NWS

Home | Current Version | Previous Version | Graphics & Text | Print | Product List | Glossary On
Versions: 1 2 3 4 5 6 7 8 9 10 11 12 13 14 15 16 17 18 19 20 21 22 23 24 25 26 27 28 29 30 31 32 33 34 35 36 37 38 39 40 41 42 43 44 45 46 47 48 49 50
000
ASUS45 KCYS 061610
RWRWY

WYOMING REGIONAL WEATHER ROUNDUP
NATIONAL WEATHER SERVICE CHEYENNE WY
900 AM MST FRI MAR 06 2015

NOTE:  "FAIR" INDICATES FEW OR NO CLOUDS BELOW 12,000 FEET
WITH NO SIGNIFICANT WEATHER AND/OR OBSTRUCTIONS TO VISIBILITY.

WYZ001-061700-
YELLOWSTONE NATIONAL PARK

CITY           SKY/WX    TMP DP  RH WIND       PRES   REMARKS
LK YELLOWSTONE   N/A     18  10  71 CALM      30.40R
W YELLOWSTONE  NOT AVBL

$$
WYZ002>013-054>058-071-098>099-061700-
NORTHERN WYOMING

CITY           SKY/WX    TMP DP  RH WIND       PRES   REMARKS
JACKSON        SUNNY      9   7  92 N10       30.43R WCI  -6
CODY           FAIR      45  12  26 W14G24    30.22R
GREYBULL       FAIR      29  17  61 CALM      30.28R
WORLAND        FAIR      30  17  58 CALM      30.27R
SHERIDAN       FAIR      37  20  50 W3        30.18R
BUFFALO        FAIR      43  17  35 CALM      30.19R
GILLETTE       FAIR      43  17  35 SW9       30.18R
HULETT         FAIR      41  18  38 SW12      30.17R
NEWCASTLE      FAIR      34  19  55 CALM      30.21R

$$
WYZ014>020-022>026-101>103-061700-
CENTRAL WYOMING

CITY           SKY/WX    TMP DP  RH WIND       PRES   REMARKS
BIG PINEY      FAIR      26  14  60 NW3       30.39R
PINEDALE       FAIR      21  10  63 NW10      30.38R WCI  10
DUBOIS         FAIR      30  12  47 N16       30.31R WCI  19
LANDER         FAIR      22  11  62 SE5       30.25F WCI  16
RIVERTON       FAIR      16   8  71 NE6       30.27R WCI   7
CASPER         FAIR      31  17  56 SW23      30.26R WCI  18
DOUGLAS        FAIR      31  18  58 N6        30.25R WCI  25

$$
WYZ021-027>030-104>119-061700-
SOUTHERN WYOMING

CITY           SKY/WX    TMP DP  RH WIND       PRES   REMARKS
EVANSTON       FAIR      28  13  53 SW12      30.42R WCI  18
FORT BRIDGER   FAIR      35  15  45 W14       30.44R WCI  25
ROCK SPRINGS   FAIR      30  14  51 W16       30.38R WCI  19
DIXON          FAIR      25  14  63 SE5       30.44S WCI  20
RAWLINS        FAIR      28  14  55 SW18G24   30.34R WCI  15
SARATOGA       FAIR      27  14  59 CALM      30.37R
LARAMIE        FAIR      31  14  49 SW15      30.29R WCI  20
CHEYENNE       FAIR      38  13  35 W14G24    30.27R WCI  30
TORRINGTON     FAIR      42  21  43 W13       30.24R
PINE BLUFFS    FAIR      43  14  31 NW24      30.27R

$$


USA.gov is the U.S. government's official web portal to all federal, state and local government web resources and services.